MDT,Max TemperatureF,Mean TemperatureF,Min TemperatureF,Max Dew PointF,MeanDew PointF,Min DewpointF,Max Humidity, Mean Humidity, Min Humidity, Max Sea Level PressureIn, Mean Sea Level PressureIn, Min Sea Level PressureIn, Max VisibilityMiles, Mean VisibilityMiles, Min VisibilityMiles, Max Wind SpeedMPH, Mean Wind SpeedMPH, Max Gust SpeedMPH,PrecipitationIn, CloudCover, Events, WindDirDegrees
2012-9-1,93,78,62,57,49,45,68,40,20,29.89,29.79,29.74,10,10,10,21,11,30,0.00,0,,253
2012-9-2,84,70,55,54,34,19,68,30,11,29.96,29.91,29.82,10,10,10,23,9,31,0.00,2,,274
2012-9-3,82,66,51,34,28,21,35,24,14,29.97,29.93,29.89,10,10,10,21,10,26,0.00,0,,311
2012-9-4,77,62,44,39,34,28,71,41,23,30.08,29.97,29.91,10,10,10,29,7,37,0.00,1,,319
2012-9-5,78,61,44,39,35,30,66,40,20,30.08,29.98,29.88,10,10,10,13,7,24,0.00,0,,229
2012-9-6,71,61,44,45,39,32,66,45,31,30.19,30.04,29.92,10,10,10,20,11,25,0.00,2,,2
2012-9-7,75,56,37,39,36,34,87,52,24,30.28,30.23,30.19,10,10,7,14,6,21,0.00,0,,303
2012-9-8,71,60,48,46,35,25,63,42,18,30.28,30.21,30.16,10,10,10,16,7,23,0.00,0,,31
2012-9-9,91,70,48,39,30,23,40,26,12,30.16,29.94,29.69,10,10,8,17,7,20,0.00,0,,184
2012-9-10,91,71,51,43,34,28,47,28,15,29.76,29.68,29.64,10,10,8,22,6,26,0.00,0,Thunderstorm,269
2012-9-11,69,56,39,34,25,16,53,29,18,30.12,29.96,29.78,10,10,8,25,15,37,0.00,1,,310
2012-9-12,68,52,37,25,19,16,45,29,16,30.31,30.25,30.13,10,10,7,20,9,28,0.00,0,,301
2012-9-13,75,55,35,34,26,18,48,33,17,30.38,30.32,30.28,10,10,10,28,9,34,0.00,0,,272
2012-9-14,84,62,39,37,31,25,65,36,14,30.37,30.22,30.00,10,10,10,17,5,24,0.00,0,,169
2012-9-15,86,67,48,37,30,27,43,27,12,30.05,30.01,29.97,10,10,10,14,8,16,0.00,0,,27
2012-9-16,64,55,46,45,38,30,76,53,31,30.23,30.16,30.03,10,10,10,24,10,30,0.00,5,,50
2012-9-17,62,52,42,39,29,25,71,43,26,30.23,30.16,30.03,10,10,10,14,7,20,0.00,6,,333
2012-9-18,82,63,44,36,30,27,50,30,16,30.03,29.89,29.80,10,10,9,23,11,30,0.00,0,,277
2012-9-19,68,56,44,36,30,25,57,38,24,30.15,30.07,29.88,10,10,10,21,12,28,0.00,0,,319
2012-9-20,69,56,42,34,30,25,57,38,26,30.07,30.03,29.98,10,10,10,25,9,33,0.00,0,,296
2012-9-21,69,56,42,36,33,30,62,43,27,30.18,30.08,30.02,10,10,10,21,11,29,0.00,0,,335
2012-9-22,68,52,37,30,28,25,65,42,23,30.28,30.22,30.17,10,10,10,13,8,22,0.00,0,,67
2012-9-23,73,55,37,34,28,23,56,38,20,30.20,30.15,30.08,10,10,1,12,6,,0.00,0,,84
2012-9-24,82,60,39,37,30,25,57,34,17,30.07,29.96,29.88,10,10,0,12,6,17,0.00,0,,250
2012-9-25,80,62,44,41,36,30,66,42,20,29.97,29.93,29.90,10,10,9,10,6,,0.00,0,,51
2012-9-26,80,61,42,41,37,34,71,42,21,30.06,30.01,29.97,10,10,10,18,5,23,0.00,1,,14
2012-9-27,75,65,55,46,42,37,67,46,33,30.14,30.10,30.06,10,10,10,16,7,,0.00,3,,167
2012-9-28,80,62,44,45,41,36,87,49,20,30.12,30.04,29.96,10,10,10,21,6,28,0.00,0,,123
2012-9-29,84,65,46,43,38,34,66,38,20,29.99,29.93,29.90,10,10,7,14,8,18,0.00,0,,237
2012-9-30,71,58,46,48,41,34,87,53,37,30.27,30.09,29.99,10,10,6,22,8,30,0.00,2,Thunderstorm,353